OCN8D LEIB-EDDF

Flight info

Callsign OCN8D
Flight time N/A
Altitude 36000
Route KABRE DCT ELTAN N853 LUMAS DCT MAXIR DCT LUSOL DCT BODRU DCT OKTET DCT IRMAR DCT KINES DCT VANAS DCT ESOKO DCT GODRA DCT LADOL T163 EMPAX EMPAX5B
Aircraft A320/M-SDE2E3FGIJ1LORWXYZ/HB1

Departure

Time N/A
Airport Ibiza Airport (LEIB)

Arrival

Time 2026-05-05 15:54
Airport Frankfurt Main Airport (EDDF)
Time Latitude Longitude Altitude Speed Heading
2026-05-05 15:13 46.38256 7.52695 35925 ft 480 kts 29°
2026-05-05 15:14 46.41124 7.55160 35921 ft 479 kts 29°
2026-05-05 15:14 46.46841 7.60097 35927 ft 478 kts 29°
2026-05-05 15:15 46.52544 7.65037 35916 ft 477 kts 29°
2026-05-05 15:15 46.58238 7.69975 35905 ft 477 kts 29°
2026-05-05 15:16 46.64001 7.74734 35894 ft 476 kts 26°
2026-05-05 15:16 46.69877 7.79131 35880 ft 474 kts 25°
2026-05-05 15:17 46.75750 7.83491 35875 ft 473 kts 26°
2026-05-05 15:17 46.81582 7.87961 35868 ft 473 kts 26°
2026-05-05 15:18 46.87392 7.92481 35873 ft 473 kts 26°
2026-05-05 15:18 46.93208 7.96993 35883 ft 473 kts 27°
2026-05-05 15:19 46.99017 8.01498 35882 ft 472 kts 27°
2026-05-05 15:19 47.04805 8.06011 35879 ft 471 kts 27°
2026-05-05 15:20 47.10579 8.10516 35890 ft 470 kts 27°
2026-05-05 15:20 47.16343 8.15019 35879 ft 468 kts 27°
2026-05-05 15:21 47.22085 8.19521 35870 ft 467 kts 27°
2026-05-05 15:21 47.27821 8.24022 35872 ft 467 kts 27°
2026-05-05 15:22 47.33552 8.28537 35873 ft 467 kts 28°
2026-05-05 15:22 47.39267 8.33064 35858 ft 466 kts 27°
2026-05-05 15:23 47.44973 8.37586 35854 ft 466 kts 27°
2026-05-05 15:23 47.50687 8.42120 35860 ft 466 kts 28°
2026-05-05 15:24 47.56403 8.46663 35867 ft 465 kts 28°
2026-05-05 15:24 47.61138 8.50443 35865 ft 465 kts 28°
2026-05-05 15:25 47.66829 8.54999 35864 ft 465 kts 28°
2026-05-05 15:25 47.72519 8.59548 35877 ft 464 kts 28°
2026-05-05 15:26 47.78193 8.64097 35867 ft 463 kts 28°
2026-05-05 15:26 47.83855 8.68664 35866 ft 463 kts 28°
2026-05-05 15:27 47.89506 8.73236 35865 ft 462 kts 29°
2026-05-05 15:27 47.95155 8.77807 35867 ft 462 kts 29°
2026-05-05 15:28 48.00796 8.82386 35865 ft 461 kts 29°
2026-05-05 15:28 48.06474 8.87000 35606 ft 472 kts 29°
2026-05-05 15:28 48.09374 8.89360 35360 ft 476 kts 29°
2026-05-05 15:29 48.12278 8.91728 35115 ft 476 kts 30°
2026-05-05 15:29 48.15233 8.93954 34871 ft 475 kts 22°
2026-05-05 15:29 48.18389 8.95432 34629 ft 475 kts 12°
2026-05-05 15:29 48.21662 8.96108 34391 ft 475 kts
2026-05-05 15:30 48.24951 8.96601 34157 ft 475 kts
2026-05-05 15:30 48.28244 8.97090 33918 ft 476 kts
2026-05-05 15:30 48.31538 8.97579 33648 ft 475 kts
2026-05-05 15:30 48.34827 8.98071 33374 ft 476 kts
2026-05-05 15:31 48.38124 8.98569 33101 ft 476 kts
2026-05-05 15:31 48.41417 8.99071 32831 ft 476 kts
2026-05-05 15:31 48.44716 8.99580 32563 ft 476 kts
2026-05-05 15:31 48.48011 9.00090 32299 ft 477 kts
2026-05-05 15:32 48.51320 9.00599 32035 ft 477 kts
2026-05-05 15:32 48.54622 9.01100 31728 ft 478 kts
2026-05-05 15:32 48.57949 9.01603 30631 ft 484 kts
2026-05-05 15:32 48.61322 9.02116 29414 ft 490 kts
2026-05-05 15:33 48.64716 9.02683 28352 ft 491 kts
2026-05-05 15:33 48.68065 9.03388 27755 ft 482 kts
2026-05-05 15:33 48.71366 9.04189 27034 ft 476 kts 10°
2026-05-05 15:33 48.74606 9.05029 26314 ft 471 kts 11°
2026-05-05 15:34 48.77818 9.05873 25632 ft 466 kts 11°
2026-05-05 15:34 48.80997 9.06691 24947 ft 462 kts 10°
2026-05-05 15:34 48.84158 9.07477 24270 ft 458 kts
2026-05-05 15:34 48.87287 9.08233 23599 ft 454 kts
2026-05-05 15:35 48.90407 9.08901 22872 ft 450 kts
2026-05-05 15:35 48.93498 9.09403 22258 ft 444 kts
2026-05-05 15:35 48.96556 9.09800 21663 ft 438 kts
2026-05-05 15:35 48.99581 9.10151 21107 ft 433 kts
2026-05-05 15:36 49.02565 9.10500 20558 ft 428 kts
2026-05-05 15:36 49.05512 9.10870 20047 ft 423 kts
2026-05-05 15:36 49.08436 9.11269 19527 ft 420 kts
2026-05-05 15:36 49.11324 9.11685 19030 ft 415 kts
2026-05-05 15:37 49.14184 9.12107 18530 ft 410 kts
2026-05-05 15:37 49.16994 9.12522 18007 ft 407 kts
2026-05-05 15:37 49.19812 9.12932 17466 ft 402 kts
2026-05-05 15:37 49.22582 9.13330 16951 ft 398 kts
2026-05-05 15:38 49.25328 9.13722 16423 ft 395 kts
2026-05-05 15:38 49.28050 9.14135 15893 ft 392 kts
2026-05-05 15:38 49.30724 9.14977 15362 ft 393 kts 13°
2026-05-05 15:38 49.33380 9.15923 14823 ft 391 kts 13°
2026-05-05 15:39 49.36030 9.16866 14288 ft 390 kts 13°
2026-05-05 15:39 49.38667 9.17802 13750 ft 388 kts 13°
2026-05-05 15:39 49.41297 9.18666 13155 ft 385 kts
2026-05-05 15:39 49.43961 9.18650 12519 ft 383 kts 353°
2026-05-05 15:40 49.46602 9.18181 11877 ft 381 kts 353°
2026-05-05 15:40 49.49211 9.17705 11486 ft 373 kts 352°
2026-05-05 15:40 49.51761 9.17237 11016 ft 367 kts 352°
2026-05-05 15:40 49.54295 9.16772 10827 ft 366 kts 352°
2026-05-05 15:41 49.56825 9.16307 10777 ft 367 kts 352°
2026-05-05 15:41 49.59354 9.15841 10650 ft 366 kts 352°
2026-05-05 15:41 49.61885 9.15374 10529 ft 366 kts 353°
2026-05-05 15:41 49.64416 9.14906 10408 ft 366 kts 353°
2026-05-05 15:42 49.66939 9.14439 10287 ft 366 kts 353°
2026-05-05 15:42 49.69463 9.13973 10170 ft 365 kts 353°
2026-05-05 15:42 49.71986 9.13508 10025 ft 364 kts 353°
2026-05-05 15:42 49.74496 9.13046 9874 ft 363 kts 353°
2026-05-05 15:43 49.76997 9.12583 9696 ft 360 kts 353°
2026-05-05 15:43 49.79465 9.12126 9154 ft 356 kts 353°
2026-05-05 15:43 49.81921 9.11669 8601 ft 353 kts 352°
2026-05-05 15:43 49.84346 9.11216 8047 ft 349 kts 352°
2026-05-05 15:44 49.86704 9.10778 7709 ft 340 kts 353°
2026-05-05 15:44 49.88992 9.10357 7575 ft 320 kts 352°
2026-05-05 15:44 49.91107 9.09967 7384 ft 295 kts 352°
2026-05-05 15:44 49.93102 9.09597 6899 ft 285 kts 352°
2026-05-05 15:45 49.95057 9.09234 6261 ft 281 kts 352°
2026-05-05 15:45 49.96989 9.08877 5628 ft 280 kts 353°
2026-05-05 15:45 49.98931 9.08823 5326 ft 279 kts
2026-05-05 15:45 50.00855 9.09233 5071 ft 280 kts 12°
2026-05-05 15:46 50.02720 9.10083 4823 ft 279 kts 17°
2026-05-05 15:46 50.04621 9.10432 4607 ft 275 kts 350°
2026-05-05 15:46 50.06436 9.09555 4474 ft 273 kts 335°
2026-05-05 15:46 50.08168 9.08381 4342 ft 271 kts 334°
2026-05-05 15:47 50.09838 9.07034 4211 ft 270 kts 320°
2026-05-05 15:47 50.10703 9.05627 4128 ft 266 kts 300°
2026-05-05 15:47 50.11599 9.02130 3989 ft 262 kts 284°
2026-05-05 15:47 50.12124 8.99397 3997 ft 264 kts 284°
2026-05-05 15:48 50.12511 8.96697 3992 ft 246 kts 272°
2026-05-05 15:48 50.12362 8.94138 3993 ft 230 kts 252°
2026-05-05 15:48 50.11851 8.91878 4000 ft 214 kts 249°
2026-05-05 15:48 50.11356 8.89756 4003 ft 204 kts 248°
2026-05-05 15:49 50.10879 8.87720 3999 ft 196 kts 249°
2026-05-05 15:49 50.10422 8.85777 3949 ft 186 kts 248°
2026-05-05 15:49 50.09989 8.83935 3749 ft 177 kts 249°
2026-05-05 15:49 50.09566 8.82143 3524 ft 179 kts 248°
2026-05-05 15:50 50.09136 8.80319 3298 ft 180 kts 248°
2026-05-05 15:50 50.08704 8.78490 3064 ft 181 kts 248°
2026-05-05 15:50 50.08272 8.76658 2817 ft 179 kts 249°
2026-05-05 15:50 50.07842 8.74835 2578 ft 179 kts 249°
2026-05-05 15:51 50.07417 8.73038 2353 ft 177 kts 249°
2026-05-05 15:51 50.07008 8.71310 2112 ft 163 kts 250°
2026-05-05 15:51 50.06631 8.69720 1903 ft 151 kts 249°
2026-05-05 15:51 50.06283 8.68248 1711 ft 140 kts 249°
2026-05-05 15:52 50.05950 8.66846 1513 ft 137 kts 249°
2026-05-05 15:52 50.05615 8.65458 1317 ft 137 kts 249°
2026-05-05 15:52 50.05290 8.64080 1155 ft 137 kts 250°
2026-05-05 15:52 50.04965 8.62692 957 ft 136 kts 250°
2026-05-05 15:53 50.04637 8.61313 762 ft 136 kts 251°
2026-05-05 15:53 50.04307 8.59928 581 ft 136 kts 250°
2026-05-05 15:53 50.03981 8.58555 405 ft 134 kts 250°
2026-05-05 15:53 50.03682 8.57299 356 ft 104 kts 250°
2026-05-05 15:54 50.03490 8.56486 359 ft 59 kts 250°
2026-05-05 15:54 50.03435 8.56107 357 ft 28 kts 273°
2026-05-05 15:54 50.03455 8.55896 347 ft 15 kts 280°
2026-05-05 15:54 50.03478 8.55728 352 ft 15 kts 301°
2026-05-05 15:55 50.03555 8.55743 347 ft 12 kts 59°
2026-05-05 15:55 50.03584 8.55855 355 ft 11 kts 69°
2026-05-05 15:55 50.03619 8.56000 357 ft 18 kts 70°
2026-05-05 15:55 50.03672 8.56225 361 ft 25 kts 69°
2026-05-05 15:56 50.03736 8.56486 352 ft 27 kts 70°
2026-05-05 15:56 50.03803 8.56768 356 ft 29 kts 70°
2026-05-05 15:56 50.03870 8.57056 362 ft 27 kts 69°
2026-05-05 15:56 50.03937 8.57332 363 ft 27 kts 70°
2026-05-05 15:57 50.04002 8.57606 368 ft 28 kts 70°
2026-05-05 15:57 50.04071 8.57895 369 ft 29 kts 69°
2026-05-05 15:57 50.04127 8.58108 370 ft 14 kts 53°
2026-05-05 15:57 50.04205 8.58181 369 ft 13 kts 26°
2026-05-05 15:58 50.04232 8.58200 366 ft 0 kts 18°
2026-05-05 16:00 50.04252 8.58207 368 ft 7 kts
2026-05-05 16:00 50.04336 8.58175 367 ft 14 kts 340°
2026-05-05 16:00 50.04435 8.58117 369 ft 17 kts 340°
2026-05-05 16:01 50.04521 8.58068 367 ft 9 kts 340°
2026-05-05 16:01 50.04577 8.58036 364 ft 8 kts 340°
2026-05-05 16:01 50.04595 8.58025 361 ft 2 kts 340°
2026-05-05 16:01 50.04611 8.58016 361 ft 0 kts 340°
2026-05-05 16:02 50.04617 8.58013 362 ft 2 kts 339°
2026-05-05 16:02 50.04646 8.57996 364 ft 9 kts 339°
2026-05-05 16:02 50.04734 8.57944 363 ft 17 kts 339°
2026-05-05 16:02 50.04832 8.57873 361 ft 12 kts 313°
2026-05-05 16:03 50.04880 8.57853 358 ft 6 kts 21°
2026-05-05 16:03 50.04909 8.57870 359 ft 4 kts 21°
2026-05-05 16:03 50.04921 8.57877 363 ft 0 kts 21°